Notices

What's New in latest Release from April 7th, 2021:

- Updated Glossary, including Speed of Maximum Gust, and Total Hourly Precipitation

- Updated national and regional climate services offices contacts and prices information

- Addition of station inventory lists for 1981-2010, 1971-2000, and 1961-1990 Normals.

If you haven't already, please take our survey and provide feedback about our website: https://eccc.sondage-survey.ca/f/LanguageSelection.aspx?s=442ca660-fcf1-47c0-95a9-59707d6fd709

Hourly Data Report for May 17, 2020

MIRAMICHI RCS
NEW BRUNSWICK
Current Station Operator: ECCC - MSC

47°00'34.000" N
65°27'54.000" W
33.00 m
8100989
71744
ACQ

Download Data

Hourly Data (May 2020)
Hourly Data Report for May 17, 2020
TIME
LST
Temp Definition
°C
Dew Point Definition
°C
Rel Hum Definition
%
Precip. Amount Definition
mm

Wind Dir Definition
10's deg

Wind Spd Definition
km/h
Visibility Definition
km
Stn Press Definition
kPa
Hmdx Definition


Wind Chill Definition


Weather Definition


00:00 4.2 0.1 75 LegendMM 25 2   101.56     LegendNANA
01:00 4.8 -0.7 67 LegendMM 22 5   101.54     LegendNANA
02:00 4.7 0.1 72 LegendMM 22 7   101.51     LegendNANA
03:00 3.0 0.9 86 LegendMM 26 4   101.49     LegendNANA
04:00 3.8 1.4 84 LegendMM 25 9   101.48     LegendNANA
05:00 3.8 2.0 88 LegendMM 23 10   101.45     LegendNANA
06:00 4.5 2.7 88 LegendMM 25 9   101.48     LegendNANA
07:00 5.9 3.1 82 LegendMM 26 8   101.51     LegendNANA
08:00 8.7 3.5 70 LegendMM 26 9   101.53     LegendNANA
09:00 15.2 1.9 40 LegendMM 29 16   101.49     LegendNANA
10:00 16.9 0.3 33 LegendMM 29 22   101.45     LegendNANA
11:00 17.7 -1.0 28 LegendMM 28 28   101.43     LegendNANA
12:00 18.4 0.9 31 LegendMM 30 23   101.45     LegendNANA
13:00 18.4 -3.6 22 LegendMM 29 24   101.42     LegendNANA
14:00 18.7 -2.2 24 LegendMM 30 21   101.40     LegendNANA
15:00 18.3 -5.7 19 LegendMM 33 20   101.41     LegendNANA
16:00 18.4 -1.6 26 LegendMM 30 23   101.44     LegendNANA
17:00 18.4 -4.7 20 LegendMM 30 17   101.46     LegendNANA
18:00 17.3 -1.8 27 LegendMM 34 16   101.51     LegendNANA
19:00 15.8 -2.8 28 LegendMM 35 12   101.59     LegendNANA
20:00 13.5 -4.7 28 LegendMM 34 8   101.66     LegendNANA
21:00 11.5 -2.4 38 LegendMM 34 4   101.71     LegendNANA
22:00 10.2 -2.0 43 LegendMM 35 4   101.72     LegendNANA
23:00 9.1 -2.1 45 LegendMM 33 4   101.71     LegendNANA

Notes on Data Quality.

Legend

  • E = Estimated
  • M = Missing
  • NA = Not Available*
  • [empty] = Indicates an unobserved value
Date modified: